Time,TemperatureF,DewpointF,PressureIn,WindDirection,WindDirectionDegrees,WindSpeedMPH,WindSpeedGustMPH,Humidity,HourlyPrecipIn,Conditions,Clouds,dailyrainin,SolarRadiationWatts/m^2,SoftwareType,DateUTC
2013-06-17 00:01:00,61.9,59.2,29.81,WSW,250,0.0,0.0,91,0.00,,,0.03,0.0,meteohub,2013-06-17 04:01:00,
2013-06-17 00:02:00,61.9,59.2,29.81,WSW,250,0.0,0.0,91,0.00,,,0.03,0.0,meteohub,2013-06-17 04:02:00,
2013-06-17 00:03:00,61.9,59.2,29.81,WSW,250,0.0,0.0,91,0.00,,,0.03,0.0,meteohub,2013-06-17 04:03:00,
2013-06-17 00:09:00,61.5,58.8,29.81,WSW,250,0.0,0.0,91,0.00,,,0.03,0.0,meteohub,2013-06-17 04:09:00,
2013-06-17 00:14:00,61.5,58.8,29.81,WSW,250,0.0,0.0,91,0.00,,,0.00,0.0,meteohub,2013-06-17 04:14:00,
2013-06-17 00:19:00,61.3,58.6,29.81,WSW,250,0.0,0.0,91,0.00,,,0.00,0.0,meteohub,2013-06-17 04:19:00,
2013-06-17 00:25:00,61.2,58.5,29.81,WSW,250,0.0,0.0,91,0.00,,,0.00,0.0,meteohub,2013-06-17 04:25:00,
2013-06-17 00:30:00,61.0,58.3,29.81,WSW,250,0.0,0.0,91,0.00,,,0.00,0.0,meteohub,2013-06-17 04:30:00,
2013-06-17 00:35:00,60.8,58.5,29.81,WSW,250,0.0,1.0,92,0.00,,,0.00,0.0,meteohub,2013-06-17 04:35:00,
2013-06-17 00:40:00,60.6,57.9,29.81,WSW,250,0.0,1.0,91,0.00,,,0.00,0.0,meteohub,2013-06-17 04:40:00,
2013-06-17 00:46:00,60.4,57.7,29.81,WSW,250,0.0,1.0,91,0.00,,,0.00,0.0,meteohub,2013-06-17 04:46:00,
2013-06-17 00:51:00,60.3,57.9,29.81,WSW,250,0.0,1.0,92,0.00,,,0.00,0.0,meteohub,2013-06-17 04:51:00,
2013-06-17 00:56:00,60.3,57.9,29.81,WSW,250,0.0,0.0,92,0.00,,,0.00,0.0,meteohub,2013-06-17 04:56:00,
2013-06-17 01:02:00,60.1,57.7,29.81,WSW,250,0.0,0.0,92,0.00,,,0.00,0.0,meteohub,2013-06-17 05:02:00,
2013-06-17 01:07:00,59.9,57.6,29.81,WSW,250,0.0,0.0,92,0.00,,,0.00,0.0,meteohub,2013-06-17 05:07:00,
2013-06-17 01:12:00,59.7,57.4,29.81,WSW,250,0.0,0.0,92,0.00,,,0.00,0.0,meteohub,2013-06-17 05:12:00,
2013-06-17 01:17:00,59.7,57.4,29.81,WSW,250,0.0,0.0,92,0.00,,,0.00,0.0,meteohub,2013-06-17 05:17:00,
2013-06-17 01:22:00,59.7,57.4,29.81,WSW,250,0.0,1.0,92,0.00,,,0.00,0.0,meteohub,2013-06-17 05:22:00,
2013-06-17 01:27:00,59.5,57.2,29.81,WSW,250,0.0,1.0,92,0.00,,,0.00,0.0,meteohub,2013-06-17 05:27:00,
2013-06-17 01:32:00,59.7,57.7,29.81,WSW,250,0.0,1.0,93,0.01,,,0.00,0.0,meteohub,2013-06-17 05:32:00,
2013-06-17 01:37:00,59.7,57.7,29.81,WSW,250,1.0,0.0,93,0.01,,,0.06,0.0,meteohub,2013-06-17 05:37:00,
2013-06-17 01:42:00,60.1,58.1,29.81,WSW,250,0.0,1.0,93,0.09,,,0.10,0.0,meteohub,2013-06-17 05:42:00,
2013-06-17 01:47:00,60.3,58.3,29.81,WSW,250,0.0,1.0,93,0.10,,,0.10,0.0,meteohub,2013-06-17 05:47:00,
2013-06-17 01:52:00,60.3,58.3,29.81,WSW,250,0.0,1.0,93,0.10,,,0.10,0.0,meteohub,2013-06-17 05:52:00,
2013-06-17 01:57:00,60.3,58.3,29.81,WSW,250,0.0,1.0,93,0.10,,,0.10,0.0,meteohub,2013-06-17 05:57:00,
2013-06-17 02:02:00,60.3,58.3,29.80,WSW,250,0.0,1.0,93,0.10,,,0.10,0.0,meteohub,2013-06-17 06:02:00,
2013-06-17 02:07:00,60.4,58.5,29.81,WSW,250,0.0,1.0,93,0.10,,,0.10,0.0,meteohub,2013-06-17 06:07:00,
2013-06-17 02:12:00,60.3,58.3,29.80,WSW,250,0.0,1.0,93,0.10,,,0.10,0.0,meteohub,2013-06-17 06:12:00,
2013-06-17 02:17:00,60.3,58.3,29.81,WSW,250,0.0,0.0,93,0.10,,,0.10,0.0,meteohub,2013-06-17 06:17:00,
2013-06-17 02:23:00,60.1,58.1,29.80,WSW,250,0.0,0.0,93,0.10,,,0.10,0.0,meteohub,2013-06-17 06:23:00,
2013-06-17 02:28:00,60.1,58.1,29.81,WSW,250,0.0,0.0,93,0.10,,,0.10,0.0,meteohub,2013-06-17 06:28:00,
2013-06-17 02:33:00,59.7,57.9,29.81,WSW,250,0.0,0.0,94,0.09,,,0.10,0.0,meteohub,2013-06-17 06:33:00,
2013-06-17 02:38:00,59.5,57.6,29.80,WSW,250,0.0,0.0,93,0.01,,,0.10,0.0,meteohub,2013-06-17 06:38:00,
2013-06-17 02:44:00,59.5,57.6,29.81,WSW,250,0.0,0.0,93,0.00,,,0.10,0.0,meteohub,2013-06-17 06:44:00,
2013-06-17 02:49:00,59.4,57.4,29.80,WSW,250,0.0,0.0,93,0.00,,,0.10,0.0,meteohub,2013-06-17 06:49:00,
2013-06-17 02:54:00,59.2,57.2,29.81,WSW,250,0.0,0.0,93,0.00,,,0.10,0.0,meteohub,2013-06-17 06:54:00,
2013-06-17 03:00:00,59.0,57.0,29.81,WSW,250,0.0,0.0,93,0.00,,,0.10,0.0,meteohub,2013-06-17 07:00:00,
2013-06-17 03:05:00,58.8,56.8,29.81,WSW,250,0.0,0.0,93,0.00,,,0.10,0.0,meteohub,2013-06-17 07:05:00,
2013-06-17 03:10:00,58.8,57.0,29.81,WSW,250,0.0,0.0,94,0.00,,,0.10,0.0,meteohub,2013-06-17 07:10:00,
2013-06-17 03:15:00,58.8,57.0,29.81,WSW,250,0.0,1.0,94,0.00,,,0.10,0.0,meteohub,2013-06-17 07:15:00,
2013-06-17 03:21:00,59.0,57.2,29.81,WSW,250,0.0,1.0,94,0.00,,,0.10,0.0,meteohub,2013-06-17 07:21:00,
2013-06-17 03:26:00,59.0,57.2,29.81,WSW,250,0.0,1.0,94,0.00,,,0.10,0.0,meteohub,2013-06-17 07:26:00,
2013-06-17 03:31:00,59.0,57.2,29.81,WSW,250,0.0,1.0,94,0.00,,,0.10,0.0,meteohub,2013-06-17 07:31:00,
2013-06-17 03:37:00,59.0,57.2,29.81,WSW,250,0.0,1.0,94,0.00,,,0.10,0.0,meteohub,2013-06-17 07:37:00,
2013-06-17 03:42:00,58.8,57.0,29.81,WSW,250,0.0,1.0,94,0.00,,,0.10,0.0,meteohub,2013-06-17 07:42:00,
2013-06-17 03:47:00,58.6,56.8,29.81,WSW,250,0.0,1.0,94,0.00,,,0.10,0.0,meteohub,2013-06-17 07:47:00,
2013-06-17 03:52:00,58.6,56.8,29.81,WSW,250,0.0,1.0,94,0.00,,,0.10,0.0,meteohub,2013-06-17 07:52:00,
2013-06-17 03:57:00,58.5,56.7,29.81,WSW,250,0.0,0.0,94,0.00,,,0.10,0.0,meteohub,2013-06-17 07:57:00,
2013-06-17 04:02:00,58.5,56.7,29.81,WSW,250,0.0,0.0,94,0.00,,,0.10,0.0,meteohub,2013-06-17 08:02:00,
2013-06-17 04:07:00,58.3,56.5,29.82,WSW,250,0.0,0.0,94,0.00,,,0.10,0.0,meteohub,2013-06-17 08:07:00,
2013-06-17 04:12:00,58.3,56.5,29.82,WSW,250,0.0,0.0,94,0.00,,,0.10,0.0,meteohub,2013-06-17 08:12:00,
2013-06-17 04:17:00,58.1,56.3,29.82,WSW,250,0.0,0.0,94,0.00,,,0.10,0.0,meteohub,2013-06-17 08:17:00,
2013-06-17 04:22:00,57.9,56.1,29.82,WSW,250,0.0,0.0,94,0.00,,,0.10,0.0,meteohub,2013-06-17 08:22:00,
2013-06-17 04:27:00,57.9,56.1,29.82,WSW,250,0.0,0.0,94,0.00,,,0.10,0.0,meteohub,2013-06-17 08:27:00,
2013-06-17 04:32:00,57.9,56.1,29.82,WSW,250,0.0,0.0,94,0.00,,,0.10,0.0,meteohub,2013-06-17 08:32:00,
2013-06-17 04:37:00,57.7,55.9,29.82,WSW,250,0.0,0.0,94,0.00,,,0.10,0.0,meteohub,2013-06-17 08:37:00,
2013-06-17 04:42:00,57.7,55.9,29.82,WSW,250,0.0,0.0,94,0.00,,,0.10,0.0,meteohub,2013-06-17 08:42:00,
2013-06-17 04:47:00,57.6,55.8,29.82,WSW,250,0.0,0.0,94,0.00,,,0.10,0.0,meteohub,2013-06-17 08:47:00,
2013-06-17 04:52:00,57.4,55.6,29.82,WSW,250,0.0,0.0,94,0.00,,,0.10,0.0,meteohub,2013-06-17 08:52:00,
2013-06-17 04:57:00,57.4,55.6,29.81,WSW,250,0.0,0.0,94,0.00,,,0.10,0.0,meteohub,2013-06-17 08:57:00,
2013-06-17 05:02:00,57.0,55.2,29.81,WSW,250,0.0,0.0,94,0.00,,,0.10,0.0,meteohub,2013-06-17 09:02:00,
2013-06-17 05:07:00,57.0,55.2,29.82,WSW,250,0.0,0.0,94,0.00,,,0.10,0.0,meteohub,2013-06-17 09:07:00,
2013-06-17 05:12:00,56.8,55.2,29.82,SW,226,0.0,0.0,94,0.00,,,0.10,0.0,meteohub,2013-06-17 09:12:00,
2013-06-17 05:17:00,56.8,55.2,29.82,SW,226,0.0,0.0,94,0.00,,,0.10,0.0,meteohub,2013-06-17 09:17:00,
2013-06-17 05:23:00,56.7,55.0,29.83,SW,226,0.0,0.0,94,0.00,,,0.10,0.0,meteohub,2013-06-17 09:23:00,
2013-06-17 05:28:00,56.7,55.0,29.83,SW,226,0.0,0.0,94,0.00,,,0.10,5.0,meteohub,2013-06-17 09:28:00,
2013-06-17 05:33:00,56.7,55.0,29.83,SW,226,0.0,0.0,94,0.00,,,0.10,7.0,meteohub,2013-06-17 09:33:00,
2013-06-17 05:38:00,56.5,54.9,29.82,SW,227,0.0,0.0,94,0.00,,,0.10,9.0,meteohub,2013-06-17 09:38:00,
2013-06-17 05:44:00,56.5,54.9,29.82,SW,226,0.0,0.0,94,0.00,,,0.10,11.0,meteohub,2013-06-17 09:44:00,
2013-06-17 05:49:00,56.5,54.9,29.82,SW,226,0.0,0.0,94,0.00,,,0.10,12.0,meteohub,2013-06-17 09:49:00,
2013-06-17 05:54:00,56.5,54.9,29.83,SW,226,0.0,0.0,94,0.00,,,0.10,14.0,meteohub,2013-06-17 09:54:00,
2013-06-17 05:59:00,56.5,54.9,29.83,SW,226,0.0,0.0,94,0.00,,,0.10,16.0,meteohub,2013-06-17 09:59:00,
2013-06-17 06:05:00,56.5,54.9,29.83,SW,226,0.0,0.0,94,0.00,,,0.10,18.0,meteohub,2013-06-17 10:05:00,
2013-06-17 06:10:00,56.5,54.9,29.83,SW,226,0.0,0.0,94,0.00,,,0.10,19.0,meteohub,2013-06-17 10:10:00,
2013-06-17 06:15:00,56.7,55.0,29.83,SW,226,0.0,0.0,94,0.00,,,0.10,21.0,meteohub,2013-06-17 10:15:00,
2013-06-17 06:21:00,56.7,55.0,29.83,SW,226,0.0,0.0,94,0.00,,,0.10,23.0,meteohub,2013-06-17 10:21:00,
2013-06-17 06:26:00,56.7,55.2,29.83,SW,226,0.0,0.0,95,0.00,,,0.10,25.0,meteohub,2013-06-17 10:26:00,
2013-06-17 06:31:00,56.8,55.4,29.84,SW,226,0.0,0.0,95,0.00,,,0.10,26.0,meteohub,2013-06-17 10:31:00,
2013-06-17 06:37:00,56.8,55.4,29.83,SW,226,0.0,0.0,95,0.00,,,0.10,25.0,meteohub,2013-06-17 10:37:00,
2013-06-17 06:42:00,56.8,55.4,29.84,SW,226,0.0,0.0,95,0.00,,,0.10,28.0,meteohub,2013-06-17 10:42:00,
2013-06-17 06:47:00,57.0,55.6,29.84,SW,226,0.0,0.0,95,0.00,,,0.10,30.0,meteohub,2013-06-17 10:47:00,
2013-06-17 06:52:00,57.4,55.9,29.84,SW,226,0.0,0.0,95,0.00,,,0.10,32.0,meteohub,2013-06-17 10:52:00,
2013-06-17 06:57:00,57.6,56.1,29.84,SW,226,0.0,0.0,95,0.00,,,0.10,33.0,meteohub,2013-06-17 10:57:00,
2013-06-17 07:02:00,58.1,57.0,29.84,SW,226,0.0,0.0,96,0.00,,,0.10,35.0,meteohub,2013-06-17 11:02:00,
2013-06-17 07:07:00,58.6,57.6,29.84,SW,226,0.0,0.0,96,0.00,,,0.10,37.0,meteohub,2013-06-17 11:07:00,
2013-06-17 07:12:00,59.2,58.1,29.85,SW,227,0.0,0.0,96,0.00,,,0.10,35.0,meteohub,2013-06-17 11:12:00,
2013-06-17 07:17:00,59.5,58.1,29.85,SW,226,0.0,0.0,95,0.00,,,0.10,35.0,meteohub,2013-06-17 11:17:00,
2013-06-17 07:22:00,59.7,58.6,29.85,SW,226,0.0,0.0,96,0.00,,,0.10,40.0,meteohub,2013-06-17 11:22:00,
2013-06-17 07:27:00,60.1,59.0,29.85,SW,226,0.0,0.0,96,0.00,,,0.10,42.0,meteohub,2013-06-17 11:27:00,
2013-06-17 07:32:00,60.1,59.0,29.84,SW,226,0.0,0.0,96,0.00,,,0.10,39.0,meteohub,2013-06-17 11:32:00,
2013-06-17 07:37:00,60.4,59.4,29.84,SW,226,0.0,0.0,96,0.00,,,0.10,40.0,meteohub,2013-06-17 11:37:00,
2013-06-17 07:42:00,61.0,59.9,29.85,SW,226,0.0,0.0,96,0.00,,,0.10,44.0,meteohub,2013-06-17 11:42:00,
2013-06-17 07:47:00,61.5,60.4,29.84,SW,226,0.0,0.0,96,0.00,,,0.10,44.0,meteohub,2013-06-17 11:47:00,
2013-06-17 07:52:00,62.2,61.2,29.85,SW,226,0.0,0.0,96,0.00,,,0.10,46.0,meteohub,2013-06-17 11:52:00,
2013-06-17 07:57:00,62.6,61.5,29.85,SW,226,0.0,0.0,96,0.00,,,0.10,47.0,meteohub,2013-06-17 11:57:00,
2013-06-17 08:02:00,62.8,61.7,29.85,SW,226,0.0,1.0,96,0.00,,,0.10,42.0,meteohub,2013-06-17 12:02:00,
2013-06-17 08:07:00,63.0,61.9,29.85,SW,226,0.0,1.0,96,0.00,,,0.10,42.0,meteohub,2013-06-17 12:07:00,
2013-06-17 08:12:00,63.7,62.6,29.85,SW,226,0.0,1.0,96,0.00,,,0.10,47.0,meteohub,2013-06-17 12:12:00,
2013-06-17 08:17:00,64.0,63.0,29.85,SW,226,0.0,0.0,96,0.00,,,0.10,49.0,meteohub,2013-06-17 12:17:00,
2013-06-17 08:22:00,64.2,63.1,29.85,SW,226,0.0,1.0,96,0.00,,,0.10,47.0,meteohub,2013-06-17 12:22:00,
2013-06-17 08:27:00,64.6,63.5,29.85,SW,226,0.0,1.0,96,0.00,,,0.10,47.0,meteohub,2013-06-17 12:27:00,
2013-06-17 08:32:00,64.9,63.9,29.85,SW,226,0.0,1.0,96,0.00,,,0.10,49.0,meteohub,2013-06-17 12:32:00,
2013-06-17 08:37:00,65.5,64.2,29.85,SW,226,0.0,1.0,96,0.00,,,0.10,49.0,meteohub,2013-06-17 12:37:00,
2013-06-17 08:42:00,65.7,64.4,29.85,SW,226,0.0,1.0,96,0.00,,,0.10,51.0,meteohub,2013-06-17 12:42:00,
2013-06-17 08:47:00,65.8,64.6,29.85,SW,227,0.0,1.0,96,0.00,,,0.10,51.0,meteohub,2013-06-17 12:47:00,
2013-06-17 08:52:00,66.0,64.8,29.85,SW,226,0.0,0.0,96,0.00,,,0.10,54.0,meteohub,2013-06-17 12:52:00,
2013-06-17 08:57:00,66.4,65.1,29.85,SW,226,0.0,0.0,96,0.00,,,0.10,58.0,meteohub,2013-06-17 12:57:00,
2013-06-17 09:02:00,66.4,65.1,29.85,SW,226,0.0,0.0,96,0.00,,,0.10,58.0,meteohub,2013-06-17 13:02:00,
2013-06-17 09:07:00,66.6,65.3,29.85,SW,226,0.0,0.0,96,0.00,,,0.10,62.0,meteohub,2013-06-17 13:07:00,
2013-06-17 09:12:00,66.9,65.7,29.85,SE,135,0.0,0.0,96,0.00,,,0.10,70.0,meteohub,2013-06-17 13:12:00,
2013-06-17 09:17:00,66.9,65.7,29.85,SE,136,0.0,1.0,96,0.00,,,0.10,72.0,meteohub,2013-06-17 13:17:00,
2013-06-17 09:22:00,67.6,66.4,29.85,SE,136,0.0,1.0,96,0.00,,,0.10,74.0,meteohub,2013-06-17 13:22:00,
2013-06-17 09:27:00,68.0,66.7,29.85,SE,136,0.0,1.0,96,0.00,,,0.10,100.0,meteohub,2013-06-17 13:27:00,
2013-06-17 09:32:00,68.4,67.1,29.85,SE,135,0.0,2.0,96,0.00,,,0.10,100.0,meteohub,2013-06-17 13:32:00,
2013-06-17 09:37:00,68.5,67.3,29.85,SE,135,0.0,2.0,96,0.00,,,0.10,151.0,meteohub,2013-06-17 13:37:00,
2013-06-17 09:42:00,68.5,67.3,29.85,SE,136,0.0,1.0,96,0.00,,,0.10,533.0,meteohub,2013-06-17 13:42:00,
2013-06-17 09:47:00,68.5,67.1,29.84,SE,136,0.0,1.0,95,0.00,,,0.10,109.0,meteohub,2013-06-17 13:47:00,
2013-06-17 09:52:00,68.7,67.3,29.84,NE,38,3.0,3.0,95,0.00,,,0.10,179.0,meteohub,2013-06-17 13:52:00,
2013-06-17 09:57:00,69.1,66.7,29.84,West,261,2.0,6.0,92,0.00,,,0.10,677.0,meteohub,2013-06-17 13:57:00,
2013-06-17 10:02:00,70.3,67.8,29.84,West,261,2.0,6.0,92,0.00,,,0.10,728.0,meteohub,2013-06-17 14:02:00,
2013-06-17 10:07:00,71.2,67.1,29.83,WSW,237,2.0,6.0,87,0.00,,,0.10,657.0,meteohub,2013-06-17 14:07:00,
2013-06-17 10:12:00,72.3,66.6,29.83,WSW,237,0.0,6.0,82,0.00,,,0.10,563.0,meteohub,2013-06-17 14:12:00,
2013-06-17 10:17:00,73.2,66.7,29.83,SW,217,0.0,6.0,80,0.00,,,0.10,798.0,meteohub,2013-06-17 14:17:00,
2013-06-17 10:22:00,73.9,65.8,29.82,WSW,250,0.0,4.0,76,0.00,,,0.10,838.0,meteohub,2013-06-17 14:22:00,
2013-06-17 10:27:00,74.7,65.8,29.82,West,261,4.0,4.0,74,0.00,,,0.10,756.0,meteohub,2013-06-17 14:27:00,
2013-06-17 10:32:00,75.0,64.6,29.82,West,266,0.0,5.0,70,0.00,,,0.10,756.0,meteohub,2013-06-17 14:32:00,
2013-06-17 10:37:00,75.6,65.8,29.82,SW,233,1.0,5.0,72,0.00,,,0.10,828.0,meteohub,2013-06-17 14:37:00,
2013-06-17 10:42:00,76.1,65.7,29.82,SSW,203,0.0,7.0,70,0.00,,,0.10,824.0,meteohub,2013-06-17 14:42:00,
2013-06-17 10:47:00,76.6,66.6,29.82,West,275,3.0,7.0,71,0.00,,,0.10,833.0,meteohub,2013-06-17 14:47:00,
2013-06-17 10:52:00,77.4,66.0,29.82,SW,219,0.0,7.0,68,0.00,,,0.10,765.0,meteohub,2013-06-17 14:52:00,
2013-06-17 10:57:00,77.7,65.5,29.82,SW,226,2.0,7.0,66,0.00,,,0.10,856.0,meteohub,2013-06-17 14:57:00,
2013-06-17 11:02:00,77.9,65.7,29.82,West,275,2.0,6.0,66,0.00,,,0.10,874.0,meteohub,2013-06-17 15:02:00,
2013-06-17 11:07:00,78.3,66.0,29.82,SW,228,2.0,6.0,66,0.00,,,0.10,886.0,meteohub,2013-06-17 15:07:00,
2013-06-17 11:12:00,78.4,65.3,29.81,ESE,123,1.0,6.0,64,0.00,,,0.10,965.0,meteohub,2013-06-17 15:12:00,
2013-06-17 11:17:00,79.0,66.6,29.81,NNE,26,0.0,7.0,66,0.00,,,0.10,285.0,meteohub,2013-06-17 15:17:00,
2013-06-17 11:22:00,79.0,64.8,29.81,West,269,2.0,7.0,62,0.00,,,0.10,1095.0,meteohub,2013-06-17 15:22:00,
2013-06-17 11:27:00,79.0,64.8,29.81,West,259,0.0,7.0,62,0.00,,,0.10,260.0,meteohub,2013-06-17 15:27:00,
2013-06-17 11:32:00,79.2,65.5,29.81,West,265,1.0,6.0,63,0.00,,,0.10,329.0,meteohub,2013-06-17 15:32:00,
2013-06-17 11:37:00,79.2,65.8,29.81,WNW,286,0.0,6.0,64,0.00,,,0.10,237.0,meteohub,2013-06-17 15:37:00,
2013-06-17 11:42:00,79.2,64.9,29.81,SSW,200,0.0,5.0,62,0.00,,,0.10,165.0,meteohub,2013-06-17 15:42:00,
2013-06-17 11:47:00,78.6,64.9,29.81,North,0,4.0,5.0,63,0.00,,,0.10,128.0,meteohub,2013-06-17 15:47:00,
2013-06-17 11:52:00,78.3,66.4,29.81,West,264,2.0,5.0,67,0.00,,,0.10,139.0,meteohub,2013-06-17 15:52:00,
2013-06-17 11:57:00,78.1,64.4,29.81,WNW,291,5.0,5.0,63,0.00,,,0.10,939.0,meteohub,2013-06-17 15:57:00,
2013-06-17 12:02:00,78.6,65.5,29.81,NE,56,0.0,11.0,64,0.00,,,0.10,947.0,meteohub,2013-06-17 16:02:00,
2013-06-17 12:07:00,79.5,65.8,29.81,ENE,65,3.0,11.0,63,0.00,,,0.10,949.0,meteohub,2013-06-17 16:07:00,
2013-06-17 12:12:00,80.2,66.6,29.81,SSW,199,1.0,9.0,63,0.00,,,0.10,949.0,meteohub,2013-06-17 16:12:00,
2013-06-17 12:17:00,80.2,65.5,29.81,ENE,57,1.0,9.0,61,0.00,,,0.10,960.0,meteohub,2013-06-17 16:17:00,
2013-06-17 12:22:00,80.6,66.4,29.81,ENE,69,0.0,5.0,62,0.00,,,0.10,926.0,meteohub,2013-06-17 16:22:00,
2013-06-17 12:27:00,80.8,66.0,29.80,NE,39,2.0,5.0,61,0.00,,,0.10,1002.0,meteohub,2013-06-17 16:27:00,
2013-06-17 12:32:00,81.0,66.7,29.80,SW,234,2.0,5.0,62,0.00,,,0.10,970.0,meteohub,2013-06-17 16:32:00,
2013-06-17 12:37:00,81.3,67.5,29.80,SW,219,0.0,5.0,63,0.00,,,0.10,963.0,meteohub,2013-06-17 16:37:00,
2013-06-17 12:42:00,81.9,65.7,29.80,WNW,294,4.0,5.0,58,0.00,,,0.10,962.0,meteohub,2013-06-17 16:42:00,
2013-06-17 12:47:00,82.0,63.7,29.80,WSW,237,3.0,7.0,54,0.00,,,0.10,977.0,meteohub,2013-06-17 16:47:00,
2013-06-17 12:52:00,82.6,64.8,29.79,West,269,1.0,7.0,55,0.00,,,0.10,1021.0,meteohub,2013-06-17 16:52:00,
2013-06-17 12:57:00,82.6,62.6,29.79,WNW,288,5.0,7.0,51,0.00,,,0.10,234.0,meteohub,2013-06-17 16:57:00,
2013-06-17 13:02:00,82.6,62.6,29.79,WSW,252,4.0,10.0,51,0.00,,,0.10,969.0,meteohub,2013-06-17 17:02:00,
2013-06-17 13:07:00,82.6,62.6,29.78,WSW,248,4.0,11.0,51,0.00,,,0.10,972.0,meteohub,2013-06-17 17:07:00,
2013-06-17 13:13:00,82.8,62.8,29.78,WNW,294,2.0,11.0,51,0.00,,,0.10,1016.0,meteohub,2013-06-17 17:13:00,
2013-06-17 13:18:00,82.8,62.8,29.78,West,274,0.0,10.0,51,0.00,,,0.10,334.0,meteohub,2013-06-17 17:18:00,
2013-06-17 13:23:00,82.6,64.2,29.78,WNW,286,3.0,10.0,54,0.00,,,0.10,302.0,meteohub,2013-06-17 17:23:00,
2013-06-17 13:29:00,82.0,65.3,29.78,WNW,284,1.0,10.0,57,0.00,,,0.10,304.0,meteohub,2013-06-17 17:29:00,
2013-06-17 13:34:00,81.9,65.7,29.78,WNW,284,0.0,6.0,58,0.00,,,0.10,255.0,meteohub,2013-06-17 17:34:00,
2013-06-17 13:39:00,81.3,63.7,29.78,WSW,237,0.0,6.0,55,0.00,,,0.10,257.0,meteohub,2013-06-17 17:39:00,
2013-06-17 13:45:00,81.1,66.4,29.78,WNW,292,0.0,6.0,61,0.00,,,0.10,255.0,meteohub,2013-06-17 17:45:00,
2013-06-17 13:50:00,80.6,66.4,29.78,WNW,292,0.0,6.0,62,0.00,,,0.10,200.0,meteohub,2013-06-17 17:50:00,
2013-06-17 13:55:00,79.9,67.5,29.77,West,267,0.0,6.0,66,0.00,,,0.10,306.0,meteohub,2013-06-17 17:55:00,
2013-06-17 14:01:00,79.3,67.5,29.77,West,281,0.0,5.0,67,0.00,,,0.10,264.0,meteohub,2013-06-17 18:01:00,
2013-06-17 14:06:00,78.6,68.0,29.77,West,281,0.0,5.0,70,0.00,,,0.10,260.0,meteohub,2013-06-17 18:06:00,
2013-06-17 14:11:00,78.1,67.8,29.78,West,281,0.0,5.0,71,0.00,,,0.10,176.0,meteohub,2013-06-17 18:11:00,
2013-06-17 14:17:00,77.5,67.8,29.78,West,281,0.0,2.0,72,0.00,,,0.10,272.0,meteohub,2013-06-17 18:17:00,
2013-06-17 14:22:00,77.5,67.5,29.78,WSW,248,1.0,1.0,71,0.00,,,0.10,345.0,meteohub,2013-06-17 18:22:00,
2013-06-17 14:27:00,78.4,68.7,29.77,SSW,213,0.0,2.0,72,0.00,,,0.10,1065.0,meteohub,2013-06-17 18:27:00,
2013-06-17 14:32:00,79.0,65.3,29.77,SW,217,0.0,2.0,63,0.00,,,0.10,207.0,meteohub,2013-06-17 18:32:00,
2013-06-17 14:37:00,79.3,66.6,29.77,SW,217,0.0,5.0,65,0.00,,,0.10,132.0,meteohub,2013-06-17 18:37:00,
2013-06-17 14:42:00,79.3,66.6,29.78,SW,218,0.0,5.0,65,0.00,,,0.10,44.0,meteohub,2013-06-17 18:42:00,
2013-06-17 14:47:00,78.6,66.4,29.79,SW,218,0.0,5.0,66,0.00,,,0.10,16.0,meteohub,2013-06-17 18:47:00,
2013-06-17 14:53:00,78.1,66.2,29.79,NNW,344,0.0,2.0,67,0.00,,,0.10,11.0,meteohub,2013-06-17 18:53:00,
2013-06-17 14:58:00,76.8,64.9,29.83,WSW,252,7.0,19.0,67,0.02,,,0.11,5.0,meteohub,2013-06-17 18:58:00,
2013-06-17 15:03:00,72.7,62.8,29.85,West,262,19.0,25.0,71,0.05,,,0.13,7.0,meteohub,2013-06-17 19:03:00,
2013-06-17 15:09:00,68.7,61.5,29.85,South,179,2.0,25.0,78,0.05,,,0.13,14.0,meteohub,2013-06-17 19:09:00,
2013-06-17 15:14:00,66.4,60.4,29.84,West,277,3.0,25.0,81,0.15,,,0.24,25.0,meteohub,2013-06-17 19:14:00,
2013-06-17 15:19:00,65.7,60.6,29.83,West,261,0.0,22.0,84,0.16,,,0.26,35.0,meteohub,2013-06-17 19:19:00,
2013-06-17 15:24:00,65.5,61.2,29.83,West,261,0.0,14.0,86,0.16,,,0.26,109.0,meteohub,2013-06-17 19:24:00,
2013-06-17 15:30:00,65.5,61.5,29.83,West,261,0.0,14.0,87,0.16,,,0.26,132.0,meteohub,2013-06-17 19:30:00,
2013-06-17 15:35:00,65.3,61.3,29.83,West,260,0.0,2.0,87,0.16,,,0.26,146.0,meteohub,2013-06-17 19:35:00,
2013-06-17 15:41:00,65.5,61.9,29.81,West,261,0.0,2.0,88,0.16,,,0.26,146.0,meteohub,2013-06-17 19:41:00,
2013-06-17 15:46:00,65.5,62.2,29.83,West,261,0.0,2.0,89,0.16,,,0.26,137.0,meteohub,2013-06-17 19:46:00,
2013-06-17 15:51:00,65.7,62.2,29.83,West,261,0.0,2.0,89,0.16,,,0.26,169.0,meteohub,2013-06-17 19:51:00,
2013-06-17 15:56:00,65.8,62.8,29.83,West,261,0.0,1.0,90,0.16,,,0.26,109.0,meteohub,2013-06-17 19:56:00,
2013-06-17 16:02:00,65.7,62.6,29.83,West,263,0.0,1.0,90,0.14,,,0.26,160.0,meteohub,2013-06-17 20:02:00,
2013-06-17 16:07:00,65.8,63.5,29.83,West,263,0.0,1.0,92,0.11,,,0.26,269.0,meteohub,2013-06-17 20:07:00,
2013-06-17 16:12:00,66.4,63.7,29.83,West,263,0.0,1.0,91,0.11,,,0.26,327.0,meteohub,2013-06-17 20:12:00,
2013-06-17 16:17:00,66.7,64.4,29.83,East,89,0.0,2.0,92,0.02,,,0.26,255.0,meteohub,2013-06-17 20:17:00,
2013-06-17 16:22:00,67.3,64.9,29.83,East,89,0.0,2.0,92,0.00,,,0.26,805.0,meteohub,2013-06-17 20:22:00,
2013-06-17 16:27:00,67.6,65.3,29.83,North,0,0.0,2.0,92,0.00,,,0.26,793.0,meteohub,2013-06-17 20:27:00,
2013-06-17 16:32:00,67.8,65.1,29.83,WNW,298,0.0,2.0,91,0.00,,,0.26,352.0,meteohub,2013-06-17 20:32:00,
2013-06-17 16:37:00,67.8,65.1,29.83,WNW,294,0.0,3.0,91,0.00,,,0.26,343.0,meteohub,2013-06-17 20:37:00,
2013-06-17 16:42:00,68.4,65.3,29.83,WNW,294,0.0,3.0,90,0.00,,,0.26,522.0,meteohub,2013-06-17 20:42:00,
2013-06-17 16:47:00,68.7,65.7,29.83,WNW,294,0.0,3.0,90,0.00,,,0.26,394.0,meteohub,2013-06-17 20:47:00,
2013-06-17 16:52:00,68.9,65.5,29.83,WNW,294,0.0,3.0,89,0.00,,,0.26,457.0,meteohub,2013-06-17 20:52:00,
2013-06-17 16:57:00,69.4,65.7,29.83,WNW,294,0.0,1.0,88,0.00,,,0.26,450.0,meteohub,2013-06-17 20:57:00,
2013-06-17 17:02:00,70.0,66.0,29.82,WNW,294,0.0,1.0,87,0.00,,,0.26,629.0,meteohub,2013-06-17 21:02:00,
2013-06-17 17:07:00,70.5,66.4,29.82,WNW,294,3.0,3.0,87,0.00,,,0.26,555.0,meteohub,2013-06-17 21:07:00,
2013-06-17 17:12:00,71.1,66.0,29.82,WNW,294,3.0,3.0,84,0.00,,,0.26,533.0,meteohub,2013-06-17 21:12:00,
2013-06-17 17:17:00,71.8,66.7,29.82,WNW,294,0.0,3.0,84,0.00,,,0.26,522.0,meteohub,2013-06-17 21:17:00,
2013-06-17 17:23:00,72.0,66.6,29.82,WNW,288,0.0,3.0,83,0.00,,,0.26,508.0,meteohub,2013-06-17 21:23:00,
2013-06-17 17:28:00,72.1,66.4,29.82,WSW,247,0.0,3.0,82,0.00,,,0.26,501.0,meteohub,2013-06-17 21:28:00,
2013-06-17 17:33:00,72.5,67.1,29.83,WSW,247,0.0,4.0,83,0.00,,,0.26,445.0,meteohub,2013-06-17 21:33:00,
2013-06-17 17:39:00,72.7,66.2,29.83,WSW,247,0.0,4.0,80,0.00,,,0.26,153.0,meteohub,2013-06-17 21:39:00,
2013-06-17 17:44:00,72.5,66.0,29.83,WSW,247,0.0,3.0,80,0.00,,,0.26,151.0,meteohub,2013-06-17 21:44:00,
2013-06-17 17:49:00,72.3,66.6,29.83,WSW,247,0.0,3.0,82,0.00,,,0.26,380.0,meteohub,2013-06-17 21:49:00,
2013-06-17 17:54:00,72.1,66.7,29.83,WSW,247,0.0,1.0,83,0.00,,,0.26,466.0,meteohub,2013-06-17 21:54:00,
2013-06-17 18:00:00,72.3,66.9,29.83,West,260,0.0,2.0,83,0.00,,,0.26,411.0,meteohub,2013-06-17 22:00:00,
2013-06-17 18:05:00,72.5,66.0,29.83,WSW,252,2.0,4.0,80,0.00,,,0.26,380.0,meteohub,2013-06-17 22:05:00,
2013-06-17 18:10:00,73.0,66.2,29.83,NW,310,2.0,4.0,79,0.00,,,0.26,373.0,meteohub,2013-06-17 22:10:00,
2013-06-17 18:16:00,73.6,65.8,29.83,WSW,245,0.0,5.0,77,0.00,,,0.26,338.0,meteohub,2013-06-17 22:16:00,
2013-06-17 18:21:00,73.9,66.2,29.83,WSW,254,0.0,5.0,77,0.00,,,0.26,323.0,meteohub,2013-06-17 22:21:00,
2013-06-17 18:26:00,74.1,67.1,29.83,WSW,254,0.0,5.0,79,0.00,,,0.26,306.0,meteohub,2013-06-17 22:26:00,
2013-06-17 18:32:00,74.3,66.9,29.83,West,271,0.0,5.0,78,0.00,,,0.26,287.0,meteohub,2013-06-17 22:32:00,
2013-06-17 18:37:00,74.3,67.6,29.83,West,270,0.0,3.0,80,0.00,,,0.26,279.0,meteohub,2013-06-17 22:37:00,
2013-06-17 18:42:00,74.1,68.0,29.83,West,271,0.0,3.0,81,0.00,,,0.26,274.0,meteohub,2013-06-17 22:42:00,
2013-06-17 18:47:00,73.9,67.5,29.83,West,271,0.0,2.0,80,0.00,,,0.26,258.0,meteohub,2013-06-17 22:47:00,
2013-06-17 18:52:00,73.8,66.9,29.83,West,259,3.0,3.0,79,0.00,,,0.26,155.0,meteohub,2013-06-17 22:52:00,
2013-06-17 18:57:00,73.9,66.2,29.83,NW,312,0.0,6.0,77,0.00,,,0.26,214.0,meteohub,2013-06-17 22:57:00,
2013-06-17 19:02:00,73.9,66.2,29.83,WNW,302,0.0,6.0,77,0.00,,,0.26,169.0,meteohub,2013-06-17 23:02:00,
2013-06-17 19:07:00,73.9,65.8,29.83,WNW,302,0.0,6.0,76,0.00,,,0.26,185.0,meteohub,2013-06-17 23:07:00,
2013-06-17 19:12:00,73.9,66.2,29.83,WNW,302,0.0,6.0,77,0.00,,,0.26,169.0,meteohub,2013-06-17 23:12:00,
2013-06-17 19:17:00,73.8,66.0,29.84,WNW,294,0.0,1.0,77,0.00,,,0.26,47.0,meteohub,2013-06-17 23:17:00,
2013-06-17 19:22:00,73.6,66.4,29.84,WNW,294,0.0,2.0,78,0.00,,,0.26,62.0,meteohub,2013-06-17 23:22:00,
2013-06-17 19:27:00,73.2,66.4,29.84,WNW,294,0.0,2.0,79,0.00,,,0.26,72.0,meteohub,2013-06-17 23:27:00,
2013-06-17 19:32:00,73.0,66.2,29.84,WNW,288,0.0,2.0,79,0.00,,,0.26,83.0,meteohub,2013-06-17 23:32:00,
2013-06-17 19:37:00,72.9,65.7,29.84,WNW,288,0.0,3.0,78,0.00,,,0.26,83.0,meteohub,2013-06-17 23:37:00,
2013-06-17 19:42:00,72.7,65.8,29.84,WNW,288,0.0,3.0,79,0.00,,,0.26,44.0,meteohub,2013-06-17 23:42:00,
2013-06-17 19:47:00,72.3,65.5,29.84,WNW,288,0.0,3.0,79,0.00,,,0.26,16.0,meteohub,2013-06-17 23:47:00,
2013-06-17 19:52:00,72.1,65.7,29.84,WNW,288,0.0,3.0,80,0.00,,,0.26,12.0,meteohub,2013-06-17 23:52:00,
2013-06-17 19:57:00,71.8,65.7,29.84,WNW,288,0.0,3.0,81,0.00,,,0.26,16.0,meteohub,2013-06-17 23:57:00,
2013-06-17 20:02:00,71.4,65.7,29.84,WNW,288,0.0,3.0,82,0.00,,,0.26,19.0,meteohub,2013-06-18 00:02:00,
2013-06-17 20:07:00,71.1,65.3,29.84,WNW,288,0.0,1.0,82,0.00,,,0.26,14.0,meteohub,2013-06-18 00:07:00,
2013-06-17 20:12:00,70.9,65.5,29.85,WNW,288,0.0,1.0,83,0.00,,,0.26,12.0,meteohub,2013-06-18 00:12:00,
2013-06-17 20:17:00,70.5,65.1,29.85,WNW,288,0.0,0.0,83,0.00,,,0.26,9.0,meteohub,2013-06-18 00:17:00,
2013-06-17 20:22:00,70.3,65.3,29.85,WNW,287,0.0,0.0,84,0.00,,,0.26,7.0,meteohub,2013-06-18 00:22:00,
2013-06-17 20:27:00,70.0,64.9,29.85,WNW,287,0.0,0.0,84,0.00,,,0.26,5.0,meteohub,2013-06-18 00:27:00,
2013-06-17 20:32:00,69.6,64.6,29.84,WNW,287,0.0,0.0,84,0.00,,,0.26,0.0,meteohub,2013-06-18 00:32:00,
2013-06-17 20:37:00,69.4,64.4,29.85,WNW,287,0.0,0.0,84,0.00,,,0.26,0.0,meteohub,2013-06-18 00:37:00,
2013-06-17 20:42:00,68.9,64.2,29.84,WNW,287,0.0,0.0,85,0.00,,,0.26,0.0,meteohub,2013-06-18 00:42:00,
2013-06-17 20:47:00,68.5,63.9,29.84,WNW,287,0.0,0.0,85,0.00,,,0.26,0.0,meteohub,2013-06-18 00:47:00,
2013-06-17 20:52:00,68.4,63.7,29.85,WNW,287,0.0,0.0,85,0.00,,,0.26,0.0,meteohub,2013-06-18 00:52:00,
2013-06-17 20:57:00,68.2,63.9,29.85,WNW,287,0.0,0.0,86,0.00,,,0.26,0.0,meteohub,2013-06-18 00:57:00,
2013-06-17 21:02:00,67.6,63.3,29.85,WNW,287,0.0,0.0,86,0.00,,,0.26,0.0,meteohub,2013-06-18 01:02:00,
2013-06-17 21:07:00,67.3,63.3,29.85,WNW,287,0.0,0.0,87,0.00,,,0.26,0.0,meteohub,2013-06-18 01:07:00,
2013-06-17 21:12:00,66.7,62.8,29.86,WNW,287,0.0,0.0,87,0.00,,,0.26,0.0,meteohub,2013-06-18 01:12:00,
2013-06-17 21:17:00,66.4,62.8,29.86,WNW,287,0.0,0.0,88,0.00,,,0.26,0.0,meteohub,2013-06-18 01:17:00,
2013-06-17 21:22:00,66.0,62.4,29.87,WNW,287,0.0,0.0,88,0.00,,,0.26,0.0,meteohub,2013-06-18 01:22:00,
2013-06-17 21:27:00,65.8,62.2,29.87,WNW,287,0.0,0.0,88,0.00,,,0.26,0.0,meteohub,2013-06-18 01:27:00,
2013-06-17 21:32:00,65.7,62.2,29.87,WNW,287,0.0,0.0,89,0.00,,,0.26,0.0,meteohub,2013-06-18 01:32:00,
2013-06-17 21:37:00,65.3,62.1,29.87,WNW,287,0.0,0.0,89,0.00,,,0.26,0.0,meteohub,2013-06-18 01:37:00,
2013-06-17 21:42:00,64.9,61.7,29.87,WNW,287,0.0,0.0,89,0.00,,,0.26,0.0,meteohub,2013-06-18 01:42:00,
2013-06-17 21:47:00,64.9,61.7,29.88,WNW,287,0.0,0.0,89,0.00,,,0.26,0.0,meteohub,2013-06-18 01:47:00,
2013-06-17 21:52:00,64.6,61.5,29.88,WNW,287,0.0,0.0,90,0.00,,,0.26,0.0,meteohub,2013-06-18 01:52:00,
2013-06-17 21:57:00,64.4,61.3,29.88,WNW,287,0.0,0.0,90,0.00,,,0.26,0.0,meteohub,2013-06-18 01:57:00,
2013-06-17 22:02:00,64.2,61.2,29.88,WNW,287,0.0,0.0,90,0.00,,,0.26,0.0,meteohub,2013-06-18 02:02:00,
2013-06-17 22:07:00,64.0,61.0,29.88,WNW,287,0.0,0.0,90,0.00,,,0.26,0.0,meteohub,2013-06-18 02:07:00,
2013-06-17 22:12:00,63.9,60.8,29.89,WNW,287,0.0,0.0,90,0.00,,,0.26,0.0,meteohub,2013-06-18 02:12:00,
2013-06-17 22:18:00,63.9,60.8,29.88,WNW,287,0.0,0.0,90,0.00,,,0.26,0.0,meteohub,2013-06-18 02:18:00,
2013-06-17 22:23:00,63.7,60.6,29.89,WNW,287,0.0,0.0,90,0.00,,,0.26,0.0,meteohub,2013-06-18 02:23:00,
2013-06-17 22:28:00,63.7,61.0,29.89,WNW,287,0.0,0.0,91,0.00,,,0.26,0.0,meteohub,2013-06-18 02:28:00,
2013-06-17 22:34:00,63.5,60.8,29.89,WNW,287,0.0,1.0,91,0.00,,,0.26,0.0,meteohub,2013-06-18 02:34:00,
2013-06-17 22:39:00,63.3,60.6,29.89,WNW,287,0.0,1.0,91,0.00,,,0.26,0.0,meteohub,2013-06-18 02:39:00,
2013-06-17 22:44:00,63.3,60.6,29.89,WNW,287,0.0,0.0,91,0.00,,,0.26,0.0,meteohub,2013-06-18 02:44:00,
2013-06-17 22:50:00,63.1,60.4,29.89,WNW,287,0.0,0.0,91,0.00,,,0.26,0.0,meteohub,2013-06-18 02:50:00,
2013-06-17 22:55:00,63.1,60.4,29.89,WNW,287,0.0,0.0,91,0.00,,,0.26,0.0,meteohub,2013-06-18 02:55:00,
2013-06-17 23:00:00,63.1,60.4,29.89,WNW,287,0.0,0.0,91,0.00,,,0.26,0.0,meteohub,2013-06-18 03:00:00,
2013-06-17 23:05:00,63.0,60.3,29.88,WNW,287,0.0,0.0,91,0.00,,,0.26,0.0,meteohub,2013-06-18 03:05:00,
2013-06-17 23:11:00,63.0,60.6,29.89,WNW,287,0.0,0.0,92,0.00,,,0.26,0.0,meteohub,2013-06-18 03:11:00,
2013-06-17 23:16:00,62.8,60.4,29.89,WNW,287,0.0,0.0,92,0.00,,,0.26,0.0,meteohub,2013-06-18 03:16:00,
2013-06-17 23:21:00,62.8,60.4,29.89,WNW,287,0.0,0.0,92,0.00,,,0.26,0.0,meteohub,2013-06-18 03:21:00,
2013-06-17 23:27:00,62.6,60.3,29.90,WNW,287,0.0,0.0,92,0.00,,,0.26,0.0,meteohub,2013-06-18 03:27:00,
2013-06-17 23:32:00,62.4,60.1,29.89,WNW,287,0.0,0.0,92,0.00,,,0.26,0.0,meteohub,2013-06-18 03:32:00,
2013-06-17 23:37:00,62.4,60.1,29.90,WNW,287,0.0,0.0,92,0.00,,,0.26,0.0,meteohub,2013-06-18 03:37:00,
2013-06-17 23:42:00,62.2,59.9,29.89,WNW,287,0.0,0.0,92,0.00,,,0.26,0.0,meteohub,2013-06-18 03:42:00,
2013-06-17 23:47:00,62.2,59.9,29.90,WNW,287,0.0,0.0,92,0.00,,,0.26,0.0,meteohub,2013-06-18 03:47:00,
2013-06-17 23:52:00,62.1,59.7,29.89,WNW,287,0.0,0.0,92,0.00,,,0.26,0.0,meteohub,2013-06-18 03:52:00,
2013-06-17 23:57:00,61.9,59.5,29.89,WNW,287,0.0,0.0,92,0.00,,,0.26,0.0,meteohub,2013-06-18 03:57:00,